Regional Weather Roundup
Issued by NWS Charleston, WV

Home | Current Version | Previous Version | Graphics & Text | Print | Product List | Glossary On
Versions: 1 2 3 4 5 6 7 8 9 10 11 12 13 14 15 16 17 18 19 20 21 22 23 24 25 26 27 28 29 30 31 32 33 34 35 36 37 38 39 40 41 42 43 44 45 46 47 48 49 50
607
ASUS41 KRLX 052310
RWRRLX
West Virginia Regional Weather Roundup
National Weather Service Charleston WV
600 PM EST MON DEC 05 2016

Note: "fair" indicates few or no clouds below 12,000 feet with no
significant weather and/or obstructions to visibility.

WVZ003-060000-
Northern Panhandle of West Virginia

CITY           SKY/WX    TMP DP  RH WIND       PRES   REMARKS
WHEELING       PTCLDY    37  27  67 NE7       30.08S
$$

WVZ009-060000-
Northwest West Virginia

CITY           SKY/WX    TMP DP  RH WIND       PRES   REMARKS
PARKERSBURG    CLOUDY    40  30  67 N6        30.10R
$$

WVZ006-060000-
Western West Virginia

CITY           SKY/WX    TMP DP  RH WIND       PRES   REMARKS
HUNTINGTON     CLOUDY    46  34  62 NE6       30.02F
$$

WVZ015-060000-
West Central West Virginia

CITY           SKY/WX    TMP DP  RH WIND       PRES   REMARKS
CHARLESTON     CLOUDY    47  36  65 CALM      30.04R
$$

WVZ022-031-060000-
North Central West Virginia

CITY           SKY/WX    TMP DP  RH WIND       PRES   REMARKS
CLARKSBURG     PTCLDY    40  32  73 NE7       30.05S
MORGANTOWN     CLOUDY    40  29  64 N6        30.08S
$$

WVZ025-035-042-045-060000-
Southern West Virginia

CITY           SKY/WX    TMP DP  RH WIND       PRES   REMARKS
BECKLEY        CLOUDY    42  33  70 NE3       30.01F
LOGAN            N/A     46  36  66 CALM      30.01R
BLUEFIELD      CLOUDY    43  34  70 VRB3      30.00S
LEWISBURG      CLOUDY    42  33  70 CALM      30.03R
$$

WVZ047-060000-
Northern Mountains of West Virginia

CITY           SKY/WX    TMP DP  RH WIND       PRES   REMARKS
ELKINS         PTCLDY    38  33  82 CALM      30.04R
$$

WVZ052-060000-
Eastern Panhandle of West Virginia

CITY           SKY/WX    TMP DP  RH WIND       PRES   REMARKS
MARTINSBURG    CLOUDY    46  30  53 N6        30.07R
PETERSBURG     CLOUDY    47  33  57 CALM      30.05R
$$




USA.gov is the U.S. government's official web portal to all federal, state and local government web resources and services.